User: anonymous   Login
Location: Unspecified
(0.0000°N, 0.0000°E)
Time: 00:49:07
(UTC+00:00)
Language:

Kosmos-2172 - Orbit

View from above orbital plane
View from above orbital plane
View from above satellite
View from above satellite

Ground track
Ground track

The orbit data is extracted from the following two-line orbital elements,

1 21796U 91081A   21023.57753076  .00000056  00000-0  40955-4 0  9990
2 21796  82.9556 189.4405 0050503  86.8402 339.8821 13.75517260463479
Epoch (UTC): 23 January 2021 13:51:38
Eccentricity: 0.0050503
inclination: 82.9556°
perigee height: 942 km
apogee height: 1017 km
right ascension of ascending node: 189.4405°
argument of perigee: 86.8402°
revolutions per day: 13.75517260
mean anomaly at epoch: 339.8821°
orbit number at epoch: 46347

The dashed part of the orbit path shows where the satellite is in the earth's shadow,  

DLR